G8LNQ Weather Reports


time (UTC)temp
F
wind
direction
speed
knots
gust
knots
rain 1hr
in
rain 24hr
in
rain mn
in
humidity
%
barometer
mb
20260506051048 35 329 0.0 0.0 0.00 0.00 0.00 84 1015.6
20260506050531 35 329 0.0 0.0 0.00 0.00 0.00 84 1015.6
20260506045014 35 331 0.0 0.0 0.00 0.00 0.00 84 1015.6
20260506044540 35 330 0.0 0.0 0.00 0.00 0.00 84 1015.6
20260506044058 34 330 0.0 0.0 0.00 0.00 0.00 84 1015.7
20260506044002 34 330 0.0 0.0 0.00 0.00 0.00 84 1015.7
20260506043545 34 329 0.0 0.0 0.00 0.00 0.00 84 1015.7
20260506043013 34 330 0.0 1.7 0.00 0.00 0.00 84 1015.7
20260506042533 34 330 0.0 1.7 0.00 0.00 0.00 84 1015.6
20260506042012 34 330 0.0 1.7 0.00 0.00 0.00 84 1015.7
20260506041538 34 330 0.0 0.0 0.00 0.00 0.00 84 1015.6
20260506041013 34 329 0.0 0.9 0.00 0.00 0.00 84 1015.7
20260506040534 34 330 0.0 0.9 0.00 0.00 0.00 84 1015.7
20260506040101 34 330 0.0 0.0 0.00 0.00 0.00 84 1015.7
20260506040002 35 330 0.0 0.0 0.00 0.00 0.00 84 1015.7
20260506035544 35 330 0.0 0.0 0.00 0.00 0.00 84 1015.7
20260506035059 35 330 0.0 0.0 0.00 0.00 0.00 84 1015.7
20260506035000 35 330 0.0 0.0 0.00 0.00 0.00 84 1015.7
20260506034523 35 330 0.0 0.0 0.00 0.00 0.00 84 1015.7
20260506034059 35 330 0.0 0.0 0.00 0.00 0.00 84 1015.7
20260506034001 35 330 0.0 0.0 0.00 0.00 0.00 84 1015.7
20260506033524 35 330 0.0 0.0 0.00 0.00 0.00 85 1015.7
20260506033042 35 330 0.0 0.9 0.00 0.00 0.00 85 1015.7
20260506032523 35 330 0.0 1.7 0.00 0.00 0.00 85 1015.7
20260506032102 35 330 0.0 1.7 0.00 0.00 0.00 85 1015.7
20260506031526 35 330 0.0 0.0 0.00 0.00 0.00 85 1015.7
20260506031055 35 330 0.0 1.7 0.00 0.00 0.00 85 1015.7
20260506030539 35 330 0.0 1.7 0.00 0.00 0.00 85 1015.7
20260506030016 35 330 0.0 1.7 0.00 0.00 0.00 85 1015.8
20260506025538 35 330 0.0 1.7 0.00 0.00 0.00 85 1015.7
20260506025057 35 330 0.0 1.7 0.00 0.00 0.00 85 1015.7
20260506024547 35 331 0.0 1.7 0.00 0.00 0.00 85 1015.7
20260506024057 35 331 0.0 0.9 0.00 0.00 0.00 85 1015.7
20260506023538 35 330 0.0 1.7 0.00 0.00 0.00 85 1015.8
20260506023057 35 330 0.0 1.7 0.00 0.00 0.00 85 1015.7
20260506022536 36 331 0.0 1.7 0.00 0.00 0.00 85 1015.7
20260506022054 36 331 0.0 0.9 0.00 0.00 0.00 85 1015.7
20260506021537 36 331 0.0 1.7 0.00 0.00 0.00 86 1015.7
20260506021015 36 331 0.0 1.7 0.00 0.00 0.00 86 1015.8
20260506020530 36 331 0.0 0.9 0.00 0.00 0.00 86 1015.7
20260506020007 36 331 0.0 0.9 0.00 0.00 0.00 86 1015.8
20260506015529 36 331 0.0 0.9 0.00 0.00 0.00 86 1015.8
20260506015008 36 331 0.0 0.9 0.00 0.00 0.00 86 1015.8
20260506014533 36 331 0.0 0.9 0.00 0.00 0.00 86 1015.8
20260506014052 36 331 0.0 0.9 0.00 0.00 0.00 86 1015.8
20260506013536 36 331 0.0 0.9 0.00 0.00 0.00 86 1015.7
20260506013055 36 331 0.0 0.9 0.00 0.00 0.00 86 1015.7
20260506012532 36 331 0.0 0.9 0.00 0.00 0.00 86 1015.8
20260506012101 36 331 0.0 0.9 0.00 0.00 0.00 86 1015.8
20260506012002 36 331 0.0 0.9 0.00 0.00 0.00 86 1015.8
20260506011601 36 331 0.0 1.7 0.00 0.00 0.00 86 1015.8
20260506011022 36 331 0.0 1.7 0.00 0.00 0.00 86 1015.8
20260506010601 36 331 0.0 0.9 0.00 0.00 0.00 87 1015.8
20260506010019 37 331 0.0 0.9 0.00 0.00 0.00 87 1016.0
20260506005540 37 331 0.0 1.7 0.00 0.00 0.00 87 1016.0
20260506005018 37 331 0.0 1.7 0.00 0.00 0.00 87 1016.1
20260506004604 37 331 0.0 1.7 0.00 0.00 0.00 87 1016.1
20260506004036 37 331 0.0 1.7 0.00 0.00 0.00 87 1016.1
20260506003554 37 331 0.0 1.7 0.00 0.00 0.00 87 1016.1
20260506003036 37 331 0.0 1.7 0.00 0.00 0.00 87 1016.1
20260506002553 37 331 0.0 1.7 0.00 0.00 0.00 87 1016.1
20260506002018 37 331 0.0 1.7 0.00 0.00 0.00 87 1016.2
20260506001602 37 331 0.0 1.7 0.00 0.00 0.00 87 1016.2
20260506001022 38 331 0.0 1.7 0.00 0.00 0.00 87 1016.1
20260506000602 38 331 0.0 1.7 0.00 0.00 0.00 87 1016.2
20260506000504 38 332 0.0 1.7 0.00 0.00 0.00 87 1016.1
20260506000042 38 331 0.0 1.7 0.00 0.00 0.00 87 1016.2
20260505235602 38 331 0.0 1.7 0.00 0.00 0.00 87 1016.1
20260505235041 38 331 0.0 1.7 0.00 0.00 0.00 87 1016.0
20260505234552 38 331 0.0 1.7 0.00 0.00 0.00 87 1016.1
20260505234027 38 331 0.0 1.7 0.00 0.00 0.00 87 1016.2
20260505233548 38 331 0.0 1.7 0.00 0.00 0.00 87 1016.2
20260505233027 38 331 0.0 1.7 0.00 0.00 0.00 87 1016.2
20260505232548 38 331 0.0 0.9 0.00 0.00 0.00 87 1016.2
20260505232030 38 331 0.0 0.9 0.00 0.00 0.00 86 1016.2
20260505231508 38 331 0.0 2.6 0.00 0.00 0.00 86 1016.3
20260505231027 39 332 0.0 2.6 0.00 0.00 0.00 86 1016.3
20260505230507 39 331 0.0 2.6 0.00 0.00 0.00 86 1016.3
20260505230046 39 336 0.9 2.6 0.00 0.00 0.00 86 1016.3
20260505225559 39 336 0.0 2.6 0.00 0.00 0.00 86 1016.4
20260505225042 39 336 0.0 2.6 0.00 0.00 0.00 86 1016.5
20260505224532 40 331 0.0 3.5 0.00 0.00 0.00 86 1016.5